Location: El Galván
(32.4233°N, 116.6650°W)
Time: 23:56:14
(UTC+00:00)

Daily predictions for brighter satellites

Satellite Brightness Start Highest point End
(mag) Time Altitude Azimuth Time Altitude Azimuth Time Altitude Azimuth
X-37B 3.1 12:05:44 13° N 12:06:11 13° NNE 12:07:40 10° NE
IRS-1C 4.4 12:02:31 10° N 12:07:33 44° WNW 12:08:10 42° W
Cosmos 1980 Rocket 2.2 12:03:28 10° NNW 12:08:55 55° WSW 12:14:20 10° S
CENTAUR R/B 3.3 12:09:38 28° WNW 12:10:11 28° NW 12:15:48 10° N
Meteor 1-19 Rocket 4.3 12:10:33 34° SW 12:12:28 49° W 12:17:41 10° N
Lacrosse 4 Rocket 3.4 12:08:53 10° N 12:12:49 31° ENE 12:16:45 10° ESE
Lacrosse 5 rocket 2.8 12:09:49 12° S 12:13:38 40° ESE 12:17:54 10° NE
FALCON 9 DEB 4.4 12:13:29 26° S 12:14:36 34° SE 12:17:32 10° ENE
Helios 1B rocket 4.5 12:12:42 10° NNW 12:13:35 15° NNW 12:13:35 15° NNW
Meteor 2-9 Rocket 4.0 12:12:22 10° NNW 12:18:01 74° W 12:23:27 10° S
Cosmos 1869 Rocket 4.0 12:16:22 10° N 12:20:45 63° E 12:25:02 10° SSE
FALCON 9 R/B 2.6 12:22:10 14° S 12:22:10 14° S 12:22:45 10° SSE
Cosmos 1484 Rocket 3.3 12:19:02 10° N 12:22:41 37° WNW 12:22:41 37° WNW
SL-08 R/B 3.2 12:20:20 10° SSE 12:24:58 84° WSW 12:29:43 10° NNW
Cosmos 2369 4.2 12:21:32 13° NW 12:25:54 35° WSW 12:30:55 10° SSW
YAOGAN 6 3.1 12:24:50 10° N 12:28:10 36° WNW 12:28:13 36° WNW
Cosmos 1850 Rocket 3.9 12:22:54 10° NNW 12:28:13 70° WSW 12:33:30 10° S
Delta 2 Rocket 3.0 12:27:11 36° NW 12:28:21 62° N 12:31:40 10° E
DELTA 2 DEB (DPAF) 4.1 12:27:22 10° S 12:31:40 54° W 12:35:58 10° NNW
Cosmos 2278 3.6 12:26:15 10° NNW 12:31:51 69° WSW 12:37:27 10° S
SL-16 R/B 3.0 12:27:17 10° N 12:32:49 53° ENE 12:38:19 10° SE
SL-8 R/B 4.0 12:30:47 15° SW 12:34:39 66° SE 12:39:22 10° NE
IKONOS-2 4.4 12:30:44 10° S 12:34:53 62° WSW 12:39:05 10° NNW
Cosmos 2016 Rocket 4.4 12:29:43 10° SSW 12:35:39 41° W 12:41:38 10° N
NOAA 11 4.2 12:30:57 10° NNE 12:36:26 87° E 12:41:52 10° SSW
CZ-4B R/B 4.1 12:35:05 10° NNE 12:40:19 64° ESE 12:45:31 10° S
PSLV R/B 3.4 12:36:25 10° N 12:40:42 75° WNW 12:44:54 10° SSW
Cosmos 1933 Rocket 4.3 12:38:51 10° NNW 12:42:38 29° W 12:46:24 10° SSW
NOSS 3-2 (C) 4.2 12:41:14 20° W 12:43:42 28° NW 12:48:45 10° N
Cosmos 1833 4.4 12:40:33 10° SSW 12:46:13 75° ESE 12:51:58 10° NNE
Meteor 1-29 3.9 12:45:39 10° NNW 12:48:25 25° WNW 12:49:56 18° WSW
SKYMED 2 4.4 12:51:48 10° SSE 12:56:02 56° ENE 13:00:16 10° N
H-2A R/B 3.4 12:52:49 10° N 12:56:05 31° WNW 12:59:22 10° SW
CZ-2C R/B 3.4 12:51:51 10° SSW 12:56:14 27° W 13:00:41 10° NW
GP-B 4.2 12:55:34 10° SW 12:59:05 23° W 13:02:37 10° NNW
USA 238 4.5 12:54:53 13° WSW 12:59:30 28° NW 13:05:08 10° N
Cosmos 489 Rocket 4.4 12:55:00 10° NNW 13:01:14 78° WSW 13:07:24 10° S
BREEZE-M DEB (TANK) 4.4 12:50:03 10° SSW 13:01:23 45° SE 13:05:17 10° ENE
DMSP B5D2-2 4.4 12:56:57 10° SSE 13:02:10 72° ENE 13:07:26 10° N
ATLAS CENTAUR R/B 3.8 13:00:07 10° S 13:02:17 24° ESE 13:05:47 10° ENE
Cosmos 1975 3.3 13:00:28 10° NNW 13:04:09 37° W 13:07:47 10° SSW
Genesis I 3.2 13:00:22 10° SW 13:04:19 68° WNW 13:08:21 10° NNE
Delta 168 4.3 13:03:30 10° SW 13:06:12 24° S 13:09:27 10° ESE
Cosmos 2333 Rocket 4.4 13:03:28 10° N 13:08:19 28° ENE 13:13:06 10° ESE
Cosmos 1818 3.6 13:03:39 10° SW 13:09:03 71° WNW 13:14:30 10° NNE
CZ-4B R/B 4.5 13:08:06 10° NNE 13:12:15 68° E 13:16:33 10° S
CZ-2C R/B 3.7 13:08:59 10° NNW 13:12:17 28° WNW 13:15:37 10° SW
ARIANE 5 R/B 4.3 13:12:05 10° NW 13:12:53 10° WNW 13:13:41 10° WNW
CZ-2C R/B 4.0 13:08:14 10° NNW 13:12:58 29° WNW 13:17:30 10° SW
Cosmos 1862 Rocket 3.6 13:09:40 10° SSW 13:14:06 63° W 13:18:31 10° N
COSMOS 2487 2.1 13:12:09 10° SSW 13:14:53 45° WNW 13:17:38 10° N
Cosmos 2360 Rocket 3.0 13:12:12 10° NNW 13:17:44 57° ENE 13:23:13 10° SE
